This is the latest recevied weather packets stored in our database for station/object KE3HG-2. If no packets are shown the sender has not sent any weather packets the latest 10 day(s).
| Time | Temp. | Humidity | Pressure | Rain* | Wind** | Luminosity | Snow |
|---|---|---|---|---|---|---|---|
| 1777683555 | 13.89° C | 39% | 757.5 hPa | 0 mm | - | - | - |
| 1777682954 | 13.89° C | 38% | 757.5 hPa | 0 mm | - | - | - |
| 1777682354 | 14.44° C | 38% | 757.5 hPa | 0 mm | - | - | - |
| 1777681396 | 14.44° C | 39% | 757.5 hPa | 0 mm | - | - | - |
| 1777680796 | 14.44° C | 39% | 757.5 hPa | 0 mm | - | - | - |
| 1777680195 | 14.44° C | 38% | 757.5 hPa | 0 mm | - | - | - |
| 1777679255 | 15° C | 39% | 757.5 hPa | 0 mm | - | - | - |
| 1777678655 | 15.56° C | 37% | 757.5 hPa | 0 mm | - | - | - |
| 1777678054 | 15.56° C | 34% | 757.5 hPa | 0 mm | - | - | - |
| 1777677055 | 16.11° C | 34% | 757.5 hPa | 0 mm | - | - | - |
| 1777676455 | 16.67° C | 35% | 757.5 hPa | 0 mm | - | - | - |
| 1777675855 | 16.67° C | 34% | 757.5 hPa | 0 mm | - | - | - |
| 1777674887 | 16.67° C | 34% | 757.5 hPa | 0 mm | - | - | - |
| 1777674288 | 16.67° C | 35% | 757.5 hPa | 0 mm | - | - | - |
| 1777673687 | 17.22° C | 32% | 757.5 hPa | 0 mm | - | - | - |
| 1777672716 | 17.22° C | 32% | 757.5 hPa | 0 mm | - | - | - |
| 1777672116 | 17.22° C | 31% | 757.5 hPa | 0 mm | - | - | - |
| 1777671516 | 17.22° C | 30% | 757.5 hPa | 0 mm | - | - | - |
| 1777670551 | 17.22° C | 30% | 757.5 hPa | 0 mm | - | - | - |
| 1777669951 | 17.78° C | 28% | 757.5 hPa | 0 mm | - | - | - |
| 1777669351 | 17.78° C | 29% | 757.5 hPa | 0 mm | - | - | - |
| 1777668380 | 18.33° C | 27% | 757.5 hPa | 0 mm | - | - | - |
| 1777667780 | 17.78° C | 27% | 757.5 hPa | 0 mm | - | - | - |
| 1777667180 | 17.78° C | 27% | 757.5 hPa | 0 mm | - | - | - |
| 1777666201 | 17.78° C | 30% | 757.5 hPa | 0 mm | - | - | - |
* Rain latest hour (hover to see other rain measurements)
** Current wind speed in m/s (hover to see current wind gust speed)